STARLINK-4597, 53640

Orbit data source: Space-Track

STARLINK-4597, 53640 is a payload satellite owned by SpaceX/Seattle (US) in LEO that was launched on Sun, 28 Aug 2022 UTC via an FALCON 9 launch vehicle from the Air Force Eastern Test Range (AFETR). Payload-class satellites include a variety of spacecraft equipped with specific instruments for various scientific and technological missions. These include communications satellites like Starlink; space stations such as the ISS; scientific satellites like the Hubble; Earth observation satellites from companies like Planet Labs, Umbra, and HawkEye 360; GPS; miniature CubeSats for education and research; and military/defense satellites.

Loading next visibility...
Identifier
53640, 2022-104BE
Orbit
LEO
Country
Flag of USUS
Related business
Manufacturer
SpaceX/Seattle
Mission
Operational Commercial Communications
Bus & Motor
STARLINK, Unknown motor
Mass
300 kg wet, ~290 kg dry
Launch date (UTC)
2022-08-28 (4 years ago)
Launch vehicle
FALCON 9
Launch site
Air Force Eastern Test Range (AFETR)
Object type
Payload
Rocket body
Debris
Shape & HBR
Box + 1 Pan, 10.1 m
Radar Cross Section
13.562 m², Large (>1 m²)

Expand to show TLE details & history
Last TLE update: 17 hours ago

TLE from 17 hours ago
0 STARLINK-4597
1 53640U 22104BE  26072.36476426  .00000456  00000-0  46717-4 0  9996
2 53640  53.2168 207.3710 0001167  96.9024 263.2101 15.08840395196789
Epoch: 2026-03-13T08:45Z
TLE epoch observation values (Epoch: 2026-03-13T08:45:15.632Z)
Latitude
Longitude
-94.94548°
Altitude
540.735 km
Speed
7.593 km/s
True Right ascension
13h 49m 29s
True Declination
0° 00' 00"
Sunlit
Object was in full shadow at epoch
Visualization orbit readout
Latitude
Unknown
Longitude
Unknown
Altitude
Unknown
Speed
Unknown
Apparent Right ascension
Unknown
Apparent Declination
Unknown
Sunlit
N/A
Visualization observer readout
Local Sidereal Time
06:37:44
Azimuth
Unknown
Elevation
Unknown
Doppler factor
Unknown
Orbital elements
Apogee altitude
540.795 km
Perigee altitude
539.18 km
Semi-major axis
6,918.124 km
Eccentricity
0.00012
Inclination
53.2168°
RAAN
207.371°
Arg. of periapsis
96.9024°
True anomaly
263.19682°
Mean anomaly
263.2101°
Eccentric anomaly
263.20346°
Mean motion
3.7719 °/min
Orbital period
95.44 mins
BSTAR
0.000046717
Loading maneuver chart data...
Computing Atmospheric mass density...
Loading historical data...
Loading historical data...
Loading historical data...
Loading historical data...
Loading historical data...
Loading historical data...
Loading historical data...

Documentation

Showing up to 5 results
|